When you browse on this site, cookies collect data to enhance your experience and personalize the content and advertising you see.
Visit our Privacy Policy to learn more. By continuing to use the site, you agree to this use of cookies and data.
  • In Hungary
  • List of Countries
  • For 7 days
  • Water Temperature
  • Weather Map
  • News
  • Weather Widgets
  • user-avatar
    Login

    Hourly Weather Ampuero

    Today, 12 December, Thursday

    Time Temperature Precipitation Wind Pressure Humidity
    00:00 +7°C° 0 mm 6 mps 747 mmHg 94%
    01:00 +7°C° 1.1 mm 6 mps 747 mmHg 93%
    02:00 +7°C° 1.1 mm 5 mps 746 mmHg 92%
    03:00 +7°C° 1.1 mm 5 mps 745 mmHg 90%
    04:00 +7°C° 0.3 mm 5 mps 745 mmHg 89%
    05:00 +7°C° 0.3 mm 5 mps 745 mmHg 88%
    06:00 +7°C° 0 mm 4 mps 744 mmHg 87%
    07:00 +7°C° 0.1 mm 4 mps 744 mmHg 86%
    08:00 +8°C° 0.1 mm 5 mps 743 mmHg 85%
    09:00 +8°C° 0.1 mm 5 mps 742 mmHg 85%
    10:00 +9°C° 0.1 mm 5 mps 741 mmHg 82%
    11:00 +9°C° 0.1 mm 5 mps 740 mmHg 79%
    12:00 +10°C° 0.1 mm 5 mps 739 mmHg 77%
    13:00 +10°C° 0.6 mm 6 mps 738 mmHg 80%
    14:00 +9°C° 0.6 mm 6 mps 737 mmHg 83%
    15:00 +9°C° 0.6 mm 7 mps 736 mmHg 86%
    16:00 +9°C° 2.5 mm 7 mps 736 mmHg 88%
    17:00 +9°C° 2.5 mm 6 mps 736 mmHg 91%
    18:00 +10°C° 2.5 mm 6 mps 736 mmHg 93%
    19:00 +10°C° 2.8 mm 7 mps 736 mmHg 95%
    20:00 +10°C° 2.8 mm 7 mps 736 mmHg 96%
    21:00 +10°C° 2.8 mm 8 mps 736 mmHg 98%
    22:00 +11°C° 1.8 mm 8 mps 736 mmHg 97%
    23:00 +11°C° 1.8 mm 8 mps 736 mmHg 97%

    Tomorrow, 13 December, Friday

    Time Temperature Precipitation Wind Pressure Humidity
    00:00 +11°C° 1.8 mm 9 mps 736 mmHg 97%
    01:00 +11°C° 0.6 mm 9 mps 736 mmHg 95%
    02:00 +11°C° 0.6 mm 10 mps 736 mmHg 94%
    03:00 +12°C° 0.6 mm 11 mps 736 mmHg 93%
    04:00 +12°C° 0.3 mm 11 mps 736 mmHg 92%
    05:00 +12°C° 0.3 mm 12 mps 736 mmHg 92%
    06:00 +12°C° 0.3 mm 12 mps 737 mmHg 92%
    07:00 +12°C° 0.6 mm 12 mps 737 mmHg 92%
    08:00 +12°C° 0.6 mm 12 mps 738 mmHg 91%
    09:00 +12°C° 0.6 mm 12 mps 738 mmHg 91%
    10:00 +12°C° 0.1 mm 12 mps 739 mmHg 87%
    11:00 +13°C° 0.1 mm 12 mps 739 mmHg 84%
    12:00 +14°C° 0.1 mm 12 mps 740 mmHg 80%
    13:00 +14°C° 0 mm 11 mps 740 mmHg 81%
    14:00 +13°C° 0 mm 10 mps 740 mmHg 82%
    15:00 +13°C° 0 mm 10 mps 740 mmHg 83%
    16:00 +13°C° 0 mm 9 mps 740 mmHg 86%
    17:00 +12°C° 0 mm 8 mps 740 mmHg 89%
    18:00 +12°C° 0 mm 8 mps 741 mmHg 91%
    19:00 +12°C° 0 mm 7 mps 741 mmHg 92%
    20:00 +12°C° 0 mm 7 mps 742 mmHg 92%
    21:00 +12°C° 0 mm 7 mps 742 mmHg 93%
    22:00 +11°C° 0 mm 6 mps 742 mmHg 92%
    23:00 +12°C° 0 mm 5 mps 743 mmHg 90%

    Day after tomorrow, 14 December, Saturday

    Time Temperature Precipitation Wind Pressure Humidity
    00:00 +10°C° 0 mm 5 mps 743 mmHg 89%
    01:00 +11°C° 0 mm 4 mps 743 mmHg 88%
    02:00 +11°C° 0 mm 4 mps 743 mmHg 87%
    03:00 +11°C° 0 mm 3 mps 743 mmHg 86%
    04:00 +11°C° 0 mm 3 mps 743 mmHg 86%
    05:00 +11°C° 0 mm 3 mps 743 mmHg 86%
    06:00 +10°C° 0 mm 3 mps 743 mmHg 86%
    07:00 +10°C° 0 mm 3 mps 743 mmHg 85%
    08:00 +10°C° 0 mm 3 mps 743 mmHg 83%
    09:00 +10°C° 0 mm 3 mps 743 mmHg 82%
    10:00 +12°C° 0 mm 3 mps 743 mmHg 77%
    11:00 +13°C° 0 mm 4 mps 743 mmHg 72%
    12:00 +14°C° 0 mm 4 mps 743 mmHg 67%
    13:00 +14°C° 0 mm 4 mps 742 mmHg 67%
    14:00 +14°C° 0 mm 3 mps 742 mmHg 67%
    15:00 +14°C° 0 mm 3 mps 742 mmHg 67%
    16:00 +13°C° 0 mm 3 mps 742 mmHg 70%
    17:00 +12°C° 0 mm 3 mps 741 mmHg 73%
    18:00 +11°C° 0 mm 3 mps 741 mmHg 76%
    19:00 +12°C° 0 mm 4 mps 741 mmHg 75%
    20:00 +12°C° 0 mm 5 mps 741 mmHg 74%
    21:00 +11°C° 0 mm 6 mps 741 mmHg 73%
    22:00 +11°C° 0 mm 6 mps 741 mmHg 72%
    23:00 +11°C° 0 mm 6 mps 741 mmHg 71%

    15 December, Sunday

    Time Temperature Precipitation Wind Pressure Humidity
    00:00 +11°C° 0 mm 7 mps 741 mmHg 70%
    01:00 +11°C° 0 mm 6 mps 741 mmHg 71%
    02:00 +12°C° 0 mm 5 mps 741 mmHg 73%
    03:00 +10°C° 0 mm 5 mps 741 mmHg 74%
    04:00 +11°C° 0.1 mm 4 mps 741 mmHg 77%
    05:00 +10°C° 0.1 mm 3 mps 741 mmHg 79%
    06:00 +10°C° 0.1 mm 3 mps 741 mmHg 82%
    07:00 +10°C° 0.2 mm 2 mps 741 mmHg 81%
    08:00 +12°C° 0.2 mm 2 mps 741 mmHg 80%
    09:00 +12°C° 0.2 mm 2 mps 741 mmHg 79%
    10:00 +12°C° 0.1 mm 3 mps 741 mmHg 74%
    11:00 +13°C° 0.1 mm 3 mps 740 mmHg 69%
    12:00 +14°C° 0.1 mm 4 mps 740 mmHg 64%
    13:00 +14°C° 0.1 mm 4 mps 740 mmHg 69%
    14:00 +13°C° 0.1 mm 3 mps 739 mmHg 73%
    15:00 +12°C° 0.1 mm 3 mps 739 mmHg 78%
    16:00 +12°C° 0.2 mm 3 mps 739 mmHg 80%
    17:00 +13°C° 0.2 mm 2 mps 739 mmHg 82%
    18:00 +12°C° 0.2 mm 2 mps 739 mmHg 85%
    19:00 +12°C° 0.4 mm 2 mps 739 mmHg 85%
    20:00 +11°C° 0.4 mm 3 mps 738 mmHg 85%
    21:00 +11°C° 0.4 mm 3 mps 738 mmHg 85%
    22:00 +10°C° 0.1 mm 2 mps 738 mmHg 85%
    23:00 +10°C° 0.1 mm 2 mps 737 mmHg 85%

    16 December, Monday

    Time Temperature Precipitation Wind Pressure Humidity
    00:00 +9°C° 0.1 mm 2 mps 737 mmHg 85%
    01:00 +9°C° 0.2 mm 2 mps 736 mmHg 85%
    02:00 +9°C° 0.2 mm 3 mps 736 mmHg 86%
    03:00 +10°C° 0.2 mm 3 mps 735 mmHg 87%
    04:00 +9°C° 1.7 mm 3 mps 735 mmHg 90%
    05:00 +9°C° 1.7 mm 2 mps 734 mmHg 94%
    06:00 +9°C° 1.7 mm 2 mps 734 mmHg 97%
    07:00 +9°C° 2.1 mm 2 mps 734 mmHg 97%
    08:00 +9°C° 2.1 mm 2 mps 734 mmHg 97%
    09:00 +9°C° 2.1 mm 2 mps 734 mmHg 97%
    10:00 +9°C° 1.9 mm 2 mps 734 mmHg 97%
    11:00 +9°C° 1.9 mm 2 mps 733 mmHg 96%
    12:00 +9°C° 1.9 mm 2 mps 733 mmHg 96%
    13:00 +9°C° 2.9 mm 3 mps 733 mmHg 96%
    14:00 +8°C° 2.9 mm 3 mps 733 mmHg 96%
    15:00 +8°C° 2.9 mm 3 mps 732 mmHg 96%
    16:00 +8°C° 2 mm 3 mps 733 mmHg 96%
    17:00 +7°C° 2 mm 3 mps 733 mmHg 95%
    18:00 +7°C° 2 mm 3 mps 734 mmHg 95%
    19:00 +6°C° 1.7 mm 4 mps 734 mmHg 96%
    20:00 +6°C° 1.7 mm 4 mps 735 mmHg 96%
    21:00 +6°C° 1.7 mm 4 mps 735 mmHg 97%
    22:00 +6°C° 1.2 mm 4 mps 736 mmHg 97%
    23:00 +6°C° 1.2 mm 4 mps 736 mmHg 97%

    17 December, Tuesday

    Time Temperature Precipitation Wind Pressure Humidity
    00:00 +5°C° 1.2 mm 4 mps 736 mmHg 96%
    01:00 +5°C° 0.5 mm 3 mps 737 mmHg 96%
    02:00 +5°C° 0.5 mm 3 mps 737 mmHg 95%
    03:00 +5°C° 0.5 mm 3 mps 738 mmHg 94%
    04:00 +5°C° 0.3 mm 3 mps 738 mmHg 95%
    05:00 +5°C° 0.3 mm 3 mps 739 mmHg 95%
    06:00 +5°C° 0.3 mm 3 mps 739 mmHg 95%
    07:00 +6°C° 0.2 mm 2 mps 740 mmHg 95%
    08:00 +6°C° 0.2 mm 2 mps 741 mmHg 94%
    09:00 +7°C° 0.2 mm 2 mps 742 mmHg 94%
    10:00 +7°C° 0 mm 2 mps 742 mmHg 90%
    11:00 +8°C° 0 mm 2 mps 743 mmHg 87%
    12:00 +8°C° 0 mm 2 mps 743 mmHg 84%
    13:00 +10°C° 0 mm 1 mps 743 mmHg 82%
    14:00 +10°C° 0 mm 1 mps 743 mmHg 80%
    15:00 +10°C° 0 mm 1 mps 743 mmHg 78%
    16:00 +9°C° 0 mm 1 mps 744 mmHg 81%
    17:00 +7°C° 0 mm 2 mps 744 mmHg 85%
    18:00 +6°C° 0 mm 2 mps 745 mmHg 88%
    19:00 +6°C° 0 mm 2 mps 745 mmHg 88%
    20:00 +4°C° 0 mm 3 mps 745 mmHg 87%
    21:00 +4°C° 0 mm 3 mps 746 mmHg 86%
    22:00 +4°C° 0 mm 3 mps 746 mmHg 85%
    23:00 +4°C° 0 mm 3 mps 746 mmHg 83%
    Show more